Location: Cheching
(60.0667°N, 164.2167°W)
Time: 08:18:26
(UTC+00:00)

XW-2D - Pass Details

Date: 23 January 2021
Orbit: 505 x 525 km, 97.5° (Epoch: 09 March)

Event Time Altitude Azimuth Distance (km) Brightness Sun altitude
Rises 05:20:49 0° 218° (SW) 2,627 ? -18.2°
Reaches altitude 10° 05:23:56 10° 247° (WSW) 1,752 ? -18.6°
Maximum altitude 05:25:44 13° 276° (W) 1,577 ? -18.8°
Drops below altitude 10° 05:27:33 10° 304° (NW) 1,765 ? -19.0°
Sets 05:30:43 0° 334° (NNW) 2,665 ? -19.4°
